(309640) = 2008 CL182

Discovered at Mount Lemmon on 2008-02-11 by Mt. Lemmon Survey.

Orbit

Orbit type: Main Belt

Note: WebGL enabled browser required.

epoch2023-09-13.0
epoch JD2460200.5
perihelion date2020-04-29.15549
perihelion JD2458968.65549
argument of perihelion (°)184.25275
ascending node (°)49.92561
inclination (°)6.34619
eccentricity0.0626112
perihelion distance (AU)2.9281397
Tisserand w.r.t. Jupiter3.2
ΔV w.r.t. Earth (km/sec)10.8
semimajor axis (AU)3.1237195
mean anomaly (°)219.91340
mean daily motion (°/day)0.17852370
aphelion distance (AU)3.319
period (years)5.52
P-vector [x]-0.58561165
P-vector [y]-0.74040482
P-vector [z]-0.32993892
Q-vector [x]0.80616670
Q-vector [y]-0.48951222
Q-vector [z]-0.33237485
absolute magnitude16.0
phase slope0.15
uncertainty0
referenceMPEC 2024-B149
observations used317
oppositions17
arc length (days)8024
first opposition used2002
last opposition used2024
residual rms (arc-secs)0.73
perturbers coarse indicatorM-v
perturbers precise indicator003Ek
first observation date used2002-02-08.0
last observation date used2024-01-28.0
computer nameMPCLINUX
JD of orbit computation2456789.364540
perihelion JD uncertainty (days)2.6542E-04
argument of perihelion uncertainty (°)6.5657E-05
ascending node uncertainty (°)4.6378E-05
inclination uncertainty (°)4.4369E-06
eccentricity uncertainty 6.9852E-08
perihelion distance uncertainty (AU)2.2016E-07
Minimum Orbit Intersection Distances (in AU)
for orbit epoch: 2460200.5, reference: E2024-BE9
Mercury2.46664
Venus2.20419
Earth1.91601
Mars1.34006
Jupiter1.65928
Saturn5.77453
Uranus15.3941
Neptune26.5326

Observations

321 total observations over interval: 2002 02 08.139680 – 2024 01 28.477635
These data are available for download (format description).

Date (UT) J2000 RA J2000 Dec Magn Location Ref
2002 02 08.139680 08 12 03.065 +28 54 05.32 20.89 V 645 – Apache Point-Sloan Digital Sky Survey MPS 313430
2002 02 08.143152 08 12 02.889 +28 54 05.73 21.66   645 – Apache Point-Sloan Digital Sky Survey MPS 313430
2003 03 30.41155 13 58 22.05 -07 31 27.1 19.8 R 695 – Kitt Peak MPS 312597
2003 03 30.46958 13 58 19.70 -07 31 18.5   695 – Kitt Peak MPS 312597
2003 04 04.39818 13 54 55.72 -07 18 28.7 20.9 V 691 – Steward Observatory, Kitt Peak-Spacewatch MPS 312597
2003 04 04.42717 13 54 54.39 -07 18 24.2 20.7 V 691 – Steward Observatory, Kitt Peak-Spacewatch MPS 312597
2003 04 04.45698 13 54 53.06 -07 18 19.2 20.8 V 691 – Steward Observatory, Kitt Peak-Spacewatch MPS 312597
2005 12 01.13075 00 27 01.26 -01 09 13.5 22.0 V G96 – Mt. Lemmon Survey MPS 313430
2005 12 01.13874 00 27 01.22 -01 09 12.0 21.6 V G96 – Mt. Lemmon Survey MPS 313430
2005 12 01.14675 00 27 01.29 -01 09 11.4 21.6 V G96 – Mt. Lemmon Survey MPS 313430
2005 12 01.15474 00 27 01.26 -01 09 09.9 21.4 V G96 – Mt. Lemmon Survey MPS 313430
2006 11 21.32358 05 44 30.91 +27 30 19.1 20.2 V G96 – Mt. Lemmon Survey MPS 313430
2006 11 21.33410 05 44 30.48 +27 30 20.3 20.3 V G96 – Mt. Lemmon Survey MPS 313430
2008 02 11.33734 11 11 12.76 +14 46 17.6 20.5 V G96 – Mt. Lemmon Survey MPS 239669
2008 02 11.34380 11 11 12.55 +14 46 19.8 20.9 V G96 – Mt. Lemmon Survey MPS 239669
2008 02 11.35022 11 11 12.33 +14 46 21.2 20.3 V G96 – Mt. Lemmon Survey MPS 239669
2008 02 11.35669 11 11 12.04 +14 46 23.3 20.8 V G96 – Mt. Lemmon Survey MPS 239669
2008 02 18.25854 11 06 33.62 +15 19 41.0 19.0 V G96 – Mt. Lemmon Survey MPS 239669
2008 02 18.26405 11 06 33.37 +15 19 42.5 20.2 V G96 – Mt. Lemmon Survey MPS 239669
2008 02 18.26957 11 06 33.15 +15 19 43.3 19.8 V G96 – Mt. Lemmon Survey MPS 239669
2008 02 18.27515 11 06 32.86 +15 19 45.9 20.0 V G96 – Mt. Lemmon Survey MPS 239669
2008 02 28.36979 10 58 49.00 +16 06 33.5 20.2 V G96 – Mt. Lemmon Survey MPS 312597
2008 02 28.37591 10 58 48.72 +16 06 35.0 19.9 V G96 – Mt. Lemmon Survey MPS 312597
2008 02 28.38204 10 58 48.43 +16 06 36.7 20.1 V G96 – Mt. Lemmon Survey MPS 312597
2008 02 28.38813 10 58 48.14 +16 06 38.4 20.0 V G96 – Mt. Lemmon Survey MPS 312597
2010 05 25.564433 22 37 30.11 -15 49 58.1   C51 – WISE MPS 329223
2010 05 25.696736 22 37 36.16 -15 49 42.3   C51 – WISE MPS 329223
2010 05 25.829041 22 37 42.07 -15 49 21.5   C51 – WISE MPS 329223
2010 05 25.961344 22 37 48.08 -15 49 03.4   C51 – WISE MPS 329223
2010 05 26.02743 22 37 51.04 -15 48 54.4   C51 – WISE MPS 329223
2010 05 26.093648 22 37 54.03 -15 48 46.9   C51 – WISE MPS 329223
2010 05 26.159736 22 37 56.97 -15 48 35.8   C51 – WISE MPS 329223
2010 05 26.556648 22 38 14.71 -15 47 43.3   C51 – WISE MPS 329223
2010 05 26.688953 22 38 20.57 -15 47 25.1   C51 – WISE MPS 329223
2010 05 26.821256 22 38 26.43 -15 47 07.8   C51 – WISE MPS 329223
2011 10 21.24371 03 03 52.75 +15 56 56.8 20.7 V 691 – Steward Observatory, Kitt Peak-Spacewatch MPS 395093
2011 10 21.26148 03 03 51.99 +15 56 55.0 20.7 V 691 – Steward Observatory, Kitt Peak-Spacewatch MPS 395093
2011 10 21.27926 03 03 51.16 +15 56 53.7 20.9 V 691 – Steward Observatory, Kitt Peak-Spacewatch MPS 395093
2011 11 23.25918 02 37 28.12 +14 51 20.5 20.9 V G96 – Mt. Lemmon Survey MPS 401139
2011 11 23.26441 02 37 27.87 +14 51 19.9 20.6 V G96 – Mt. Lemmon Survey MPS 401139
2011 11 23.26966 02 37 27.62 +14 51 19.3 20.4 V G96 – Mt. Lemmon Survey MPS 401139
2011 11 23.27486 02 37 27.40 +14 51 18.5 20.7 V G96 – Mt. Lemmon Survey MPS 401139
2011 11 23.28005 02 37 27.19 +14 51 18.4 20.3 V G96 – Mt. Lemmon Survey MPS 401139
2011 11 24.27636 02 36 43.812 +14 49 32.06 21.2 g F51 – Pan-STARRS 1, Haleakala MPS 401139
2011 11 24.28798 02 36 43.311 +14 49 31.02 21.3 g F51 – Pan-STARRS 1, Haleakala MPS 401139
2011 11 24.30097 02 36 42.718 +14 49 29.53 20.8 r F51 – Pan-STARRS 1, Haleakala MPS 401139
2011 11 24.31216 02 36 42.226 +14 49 28.41 20.7 r F51 – Pan-STARRS 1, Haleakala MPS 401139
2012 12 08.43389 08 21 53.19 +26 46 23.3 21.2 V 691 – Steward Observatory, Kitt Peak-Spacewatch MPS 447671
2012 12 08.45193 08 21 52.87 +26 46 27.8 20.8 V 691 – Steward Observatory, Kitt Peak-Spacewatch MPS 447671
2012 12 08.46974 08 21 52.58 +26 46 30.7 20.6 V 691 – Steward Observatory, Kitt Peak-Spacewatch MPS 447671
2013 01 03.54744 08 06 58.407 +28 29 12.58 20.3 i F51 – Pan-STARRS 1, Haleakala MPS 449559
2013 01 03.56068 08 06 57.734 +28 29 15.61 20.3 i F51 – Pan-STARRS 1, Haleakala MPS 449559
2013 01 16.49617 07 55 33.898 +29 15 01.79 20.4 w F51 – Pan-STARRS 1, Haleakala MPS 452233
2013 01 16.51064 07 55 33.072 +29 15 04.30 20.3 w F51 – Pan-STARRS 1, Haleakala MPS 452233
2013 01 16.52513 07 55 32.255 +29 15 07.02 20.4 w F51 – Pan-STARRS 1, Haleakala MPS 452233
2013 01 16.53962 07 55 31.437 +29 15 09.56 20.4 w F51 – Pan-STARRS 1, Haleakala MPS 452233
2013 01 19.17038 07 53 06.79 +29 22 50.5 20.6 V 691 – Steward Observatory, Kitt Peak-Spacewatch MPS 453169
2013 01 19.18809 07 53 05.81 +29 22 53.2 20.9 V 691 – Steward Observatory, Kitt Peak-Spacewatch MPS 453169
2013 01 19.20579 07 53 04.82 +29 22 56.7 20.8 V 691 – Steward Observatory, Kitt Peak-Spacewatch MPS 453169
2013 02 14.09803 07 32 30.83 +29 59 35.9 20.6 V 691 – Steward Observatory, Kitt Peak-Spacewatch MPS 456244
2013 02 14.13517 07 32 29.57 +29 59 35.8 21.3 V 691 – Steward Observatory, Kitt Peak-Spacewatch MPS 456244
2013 02 14.15442 07 32 28.89 +29 59 35.7 21.0 V 691 – Steward Observatory, Kitt Peak-Spacewatch MPS 456244
2013 02 17.10720 07 30 52.40 +29 59 14.1 20.9 V 691 – Steward Observatory, Kitt Peak-Spacewatch MPS 457260
2013 02 17.13090 07 30 51.68 +29 59 14.2 21.2 V 691 – Steward Observatory, Kitt Peak-Spacewatch MPS 457260
2013 02 17.14736 07 30 51.12 +29 59 13.6 21.0 V 691 – Steward Observatory, Kitt Peak-Spacewatch MPS 457260
2014 02 27.38414 13 34 44.05 -03 53 07.4 20.7 V G96 – Mt. Lemmon Survey MPS 503846
2014 02 27.38889 13 34 43.99 -03 53 06.9 20.9 V G96 – Mt. Lemmon Survey MPS 503846
2014 02 27.39362 13 34 43.93 -03 53 06.5 20.5 V G96 – Mt. Lemmon Survey MPS 503846
2014 02 27.39837 13 34 43.85 -03 53 06.2 20.4 V G96 – Mt. Lemmon Survey MPS 503846
2014 02 28.41440 13 34 30.14 -03 51 33.0 20.7 V G96 – Mt. Lemmon Survey MPS 505272
2014 02 28.41818 13 34 30.10 -03 51 32.3 20.8 V G96 – Mt. Lemmon Survey MPS 505272
2014 02 28.42195 13 34 30.04 -03 51 32.0 20.0 V G96 – Mt. Lemmon Survey MPS 505272
2014 02 28.42573 13 34 29.97 -03 51 31.7 20.7 V G96 – Mt. Lemmon Survey MPS 505272
2014 02 28.50390 13 34 28.931 -03 51 23.51 21.0 w F51 – Pan-STARRS 1, Haleakala MPS 505272
2014 02 28.51513 13 34 28.757 -03 51 22.40 21.1 w F51 – Pan-STARRS 1, Haleakala MPS 505272
2014 02 28.52636 13 34 28.574 -03 51 21.37 21.0 w F51 – Pan-STARRS 1, Haleakala MPS 505272
2014 02 28.53763 13 34 28.395 -03 51 20.29 20.9 w F51 – Pan-STARRS 1, Haleakala MPS 505272
2014 03 06.16266 13 32 46.66 -03 40 50.2 20.7 R J04 – ESA Optical Ground Station, Tenerife MPS 509664
2014 03 06.17424 13 32 46.41 -03 40 48.9 20.7 R J04 – ESA Optical Ground Station, Tenerife MPS 509664
2014 03 06.18581 13 32 46.12 -03 40 47.6 20.4 R J04 – ESA Optical Ground Station, Tenerife MPS 509664
2014 03 06.19739 13 32 45.87 -03 40 45.3 20.8 R J04 – ESA Optical Ground Station, Tenerife MPS 509664
2014 03 07.44136 13 32 17.74 -03 38 02.8 20.6 V G96 – Mt. Lemmon Survey MPS 505272
2014 03 07.45074 13 32 17.51 -03 38 01.5 20.5 V G96 – Mt. Lemmon Survey MPS 505272
2014 03 07.46079 13 32 17.26 -03 38 00.3 20.5 V G96 – Mt. Lemmon Survey MPS 505272
2014 03 07.47382 13 32 16.94 -03 37 58.7 20.5 V G96 – Mt. Lemmon Survey MPS 505272
2014 04 29.30771 12 56 07.059 -01 10 34.48 20.7 w F51 – Pan-STARRS 1, Haleakala MPS 513693
2014 04 29.31966 12 56 06.576 -01 10 33.40 20.7 w F51 – Pan-STARRS 1, Haleakala MPS 513693
2014 04 29.33163 12 56 06.098 -01 10 32.48 20.6 w F51 – Pan-STARRS 1, Haleakala MPS 513693
2014 04 29.34362 12 56 05.625 -01 10 31.32 20.7 w F51 – Pan-STARRS 1, Haleakala MPS 513693
2015 06 19.47225 19 37 07.934 -29 06 27.07 20.6 w F51 – Pan-STARRS 1, Haleakala MPS 614021
2015 06 19.48226 19 37 07.510 -29 06 29.22 20.6 w F51 – Pan-STARRS 1, Haleakala MPS 614021
2015 06 19.49226 19 37 07.091 -29 06 31.58 20.6 w F51 – Pan-STARRS 1, Haleakala MPS 614021
